Wind_Speed
6 7 7 8 8 9 9 9 10 10 10 10 11 11 11 11 12 13 12 12 12 11 11 13 13 12 12 11 10 9 8 8 9 9 9 9 10 10 11 12 13 13 14 15 16 19 18 14 13 16 17 19 21 20 19 20 23 26 26 25 26 23 19 22 31 35 30 20 14 14 16 17 17 17 18 19 19 21 18 17 19 15 15 17 7 6 31
4 4 5 5 6 6 7 7 8 8 8 9 9 8 9 9 9 10 10 11 11 9 11 13 12 11 11 10 9 8 8 8 8 9 10 10 10 11 12 13 13 14 15 16 18 20 17 15 17 19 19 21 22 21 22 25 26 28 28 27 26 21 17 21 28 29 25 20 15 18 24 25 25 25 24 23 25 24 22 24 23 17 20 21 8 11 35
3 3 4 4 4 4 5 5 6 6 6 7 6 6 6 6 6 7 8 9 7 6 9 11 10 10 10 8 8 9 8 9 10 11 11 11 13 14 14 15 16 17 18 19 20 20 19 19 21 22 22 24 24 24 26 27 28 29 28 26 26 24 21 21 18 11 11 14 16 24 33 34 32 32 30 28 29 28 25 23 19 16 22 25 18 25 43
4 4 4 4 5 5 5 5 5 5 5 5 5 5 5 4 5 6 6 6 6 6 10 10 9 10 9 7 9 11 12 12 13 13 14 14 16 16 17 17 18 20 21 21 21 21 22 23 23 24 25 25 26 27 27 27 28 27 26 26 25 26 27 26 21 19 19 22 25 29 33 33 33 33 32 31 29 29 27 23 23 24 27 31 34 40 47
6 6 6 6 6 7 7 7 7 7 6 6 6 6 5 5 5 6 6 7 8 9 11 10 10 11 10 10 12 13 14 14 14 15 15 16 16 17 17 18 19 21 22 22 23 23 24 23 24 25 26 26 27 27 28 28 27 26 26 27 25 28 31 28 27 29 28 29 31 29 26 27 30 30 32 33 30 30 30 27 30 31 25 27 37 41 40
7 7 8 8 8 8 8 8 8 8 7 7 6 6 7 7 6 7 8 8 9 9 10 11 12 12 11 11 12 13 14 14 15 15 15 16 16 17 17 18 19 20 22 23 24 24 25 25 25 26 27 28 28 28 29 28 27 27 28 29 28 29 30 30 30 31 31 31 30 26 23 24 27 30 34 36 33 30 30 30 31 30 28 30 36 34 34
8 9 9 9 10 10 10 10 9 9 7 7 7 7 8 8 8 8 9 9 10 10 11 11 12 12 12 12 12 13 14 15 16 16 16 16 17 18 18 19 20 20 21 22 23 24 26 27 28 28 29 29 29 30 30 28 28 30 29 30 29 27 28 30 30 31 33 30 27 26 25 26 31 36 35 32 27 25 27 30 31 29 31 35 33 29 33
9 9 9 9 9 10 10 11 11 11 10 10 9 9 9 10 10 10 10 10 11 12 12 12 12 11 12 13 14 15 16 17 17 17 17 18 18 19 20 20 20 21 21 22 22 23 24 26 28 29 30 30 30 30 30 29 29 29 28 28 26 25 27 28 28 32 33 29 28 29 28 32 38 34 26 22 24 27 30 31 29 28 30 31 28 31 35
8 9 9 9 10 10 11 12 12 13 14 13 12 12 13 13 13 13 12 11 11 11 12 12 12 11 13 14 15 15 16 17 18 18 18 19 19 20 21 21 21 21 21 22 22 24 24 25 27 28 29 30 29 28 28 28 27 27 26 26 26 25 27 27 27 29 31 31 31 31 33 38 33 23 24 30 31 30 29 26 26 28 30 30 30 32 32
8 9 9 10 11 12 13 15 16 17 17 16 17 18 18 16 15 15 13 12 12 12 12 12 12 12 13 14 14 15 16 17 17 17 17 19 20 20 21 21 21 22 22 23 24 25 26 27 27 27 27 27 26 26 25 23 23 25 24 24 26 25 26 28 25 24 31 34 32 34 38 30 18 21 32 33 28 25 23 24 29 32 33 35 34 29 28
8 9 10 11 13 15 17 19 21 22 20 20 22 23 22 20 19 18 17 15 15 15 14 13 14 14 13 14 14 14 15 16 17 17 17 18 19 20 21 21 22 23 23 24 26 27 28 28 28 26 25 25 26 25 23 22 22 23 23 25 26 25 25 27 23 21 29 36 35 34 27 14 17 31 30 20 21 25 24 28 35 35 36 39 34 26 30
10 12 14 16 18 20 22 22 23 24 23 24 25 25 24 23 22 21 20 18 18 18 16 16 16 15 14 14 14 14 15 16 16 17 18 18 19 20 21 22 24 25 25 26 28 29 29 29 27 25 25 26 27 25 24 25 24 24 26 25 25 25 25 26 23 22 28 35 31 21 13 19 36 37 19 15 27 29 28 35 41 41 40 39 30 26 36
13 15 18 19 21 21 22 22 23 23 24 25 25 24 24 24 23 23 22 21 21 20 19 18 17 16 14 15 14 14 15 15 16 17 18 18 20 20 22 23 24 25 26 27 29 30 30 29 27 27 27 26 28 27 26 26 26 26 27 25 24 26 25 25 25 23 24 26 21 13 18 37 46 29 16 26 34 30 32 41 49 50 42 31 26 30 43
15 18 19 20 20 20 21 21 22 22 23 23 23 23 24 24 23 23 23 22 21 21 20 18 17 16 15 15 15 15 16 16 16 17 18 18 20 21 22 24 25 26 27 28 29 29 29 30 30 30 29 28 29 28 27 27 28 28 26 25 26 27 26 27 25 20 19 22 25 27 31 39 39 28 26 33 32 30 34 42 54 53 33 21 29 42 51
17 18 19 19 19 20 20 21 21 21 21 21 21 22 23 23 23 22 22 22 21 20 19 19 18 17 17 16 17 17 16 16 16 17 17 18 20 21 22 24 25 26 27 27 28 28 28 29 29 29 29 29 28 27 28 29 28 27 26 27 30 29 30 29 23 20 23 22 23 22 19 24 34 37 34 31 30 36 40 45 52 43 23 25 44 53 56
17 18 18 19 19 19 19 19 20 20 20 20 21 21 22 22 22 22 22 21 20 19 19 19 19 18 18 17 17 17 17 17 17 18 18 19 20 21 22 24 25 25 26 27 27 28 27 27 26 26 25 25 25 27 29 29 29 29 29 31 33 33 33 30 24 25 27 22 18 13 12 23 39 41 32 28 34 45 46 40 39 36 33 44 55 55 55
18 18 18 18 18 18 18 18 19 19 19 20 21 21 22 22 22 22 22 22 21 19 19 19 18 17 17 17 17 17 18 19 19 20 21 21 21 22 23 24 24 24 25 27 27 27 27 26 26 26 25 25 25 26 27 29 31 33 33 34 37 35 32 29 27 28 28 24 22 21 23 34 40 33 27 33 43 48 37 23 29 43 50 54 55 53 52
17 17 17 17 17 17 18 18 18 18 19 20 20 21 22 23 23 23 23 23 22 20 19 18 17 17 17 17 17 18 19 20 21 21 22 22 23 24 25 24 25 26 27 27 27 27 27 26 26 27 27 27 27 25 27 29 31 34 36 36 36 34 31 30 29 29 29 26 25 29 36 38 31 24 32 45 47 39 27 24 39 53 54 53 54 52 52
15 16 17 17 17 17 18 18 18 19 20 21 21 22 24 24 25 24 24 23 22 20 19 18 17 17 17 17 18 18 19 20 21 22 23 23 24 25 24 23 25 27 28 27 27 27 27 26 25 26 27 28 27 27 30 33 32 34 35 33 31 31 30 29 28 27 27 26 26 29 33 32 28 33 45 47 39 33 33 41 51 53 49 49 50 51 52
15 16 17 17 18 18 18 18 18 19 20 21 22 23 24 24 25 25 25 24 21 19 19 18 17 17 17 17 18 18 19 20 21 22 23 24 24 25 25 25 26 27 27 27 28 27 26 27 26 25 26 28 27 29 34 37 36 33 31 31 31 29 25 25 27 26 26 28 24 20 23 31 38 44 44 39 37 40 44 49 51 47 45 46 49 51 47
14 15 16 17 18 18 19 19 19 19 20 21 22 23 24 24 25 25 26 24 22 20 19 19 18 17 17 18 18 18 19 20 21 22 22 23 23 23 24 25 25 26 26 26 27 26 25 27 27 25 26 28 29 30 33 37 38 34 31 32 31 27 23 25 29 28 28 30 27 24 32 39 37 34 34 37 41 44 45 47 49 47 46 48 51 50 42
13 14 16 17 17 18 19 19 20 21 21 22 23 23 23 23 24 26 26 25 22 21 20 19 18 18 18 18 18 18 19 19 19 20 20 21 22 21 22 23 23 24 24 25 25 25 25 26 27 27 28 29 29 31 32 34 35 35 33 32 30 29 28 30 33 31 30 35 36 36 41 41 31 28 34 39 40 41 44 46 47 47 49 51 51 49 43
12 13 14 16 17 18 18 19 20 21 22 23 23 22 22 23 24 25 26 24 22 21 20 20 19 19 18 18 18 18 18 18 18 19 20 21 21 21 22 23 23 23 23 23 23 24 24 25 25 27 29 27 28 31 31 31 32 33 34 32 30 30 29 29 32 31 31 37 40 38 40 39 35 34 38 39 39 41 43 44 45 47 48 47 45 44 43
11 12 14 15 16 17 18 19 19 20 21 21 22 22 22 23 24 25 25 24 23 21 20 20 20 19 18 18 18 18 17 18 18 19 20 22 22 23 23 22 23 23 22 22 22 22 23 24 23 25 27 26 26 28 29 30 31 31 33 31 28 26 27 28 30 30 31 37 41 39 40 42 39 38 39 39 39 40 40 42 43 43 43 41 38 37 38
12 13 13 14 16 16 17 18 18 19 20 21 21 22 22 22 23 24 23 23 23 22 22 21 21 20 20 19 18 18 18 18 19 20 21 22 22 23 23 22 22 22 22 22 22 22 22 22 22 24 25 25 26 27 28 29 30 30 32 29 22 23 28 29 31 32 34 38 39 39 43 46 42 39 38 36 37 40 41 42 41 40 40 39 36 35 36
12 13 14 15 15 16 16 17 18 19 20 20 21 22 21 22 23 23 23 23 22 21 22 23 22 21 21 19 18 19 19 19 20 21 22 22 22 23 23 23 23 23 23 23 23 23 23 21 21 23 24 24 26 28 28 30 30 31 32 26 19 23 29 29 31 36 38 39 38 38 43 48 46 42 38 36 38 41 41 41 40 38 38 39 39 39 39
13 14 14 15 16 16 16 17 17 18 19 20 21 21 21 22 22 22 22 22 21 21 22 23 22 22 21 19 19 20 20 20 21 21 22 23 24 24 25 25 26 25 25 25 24 24 25 23 22 23 23 24 28 29 30 32 33 34 33 26 20 25 30 29 31 36 39 41 39 36 39 45 46 43 38 38 40 41 41 41 40 38 39 41 43 45 44
14 15 16 16 16 17 17 17 18 19 19 20 20 21 22 22 22 22 22 22 22 22 22 23 22 22 21 19 19 20 21 21 21 22 23 25 25 25 26 27 27 27 27 27 27 27 26 25 24 24 24 26 29 30 31 33 35 37 33 26 23 29 32 31 33 37 40 42 39 35 37 42 43 41 38 40 42 42 41 40 39 39 41 42 44 47 49
15 16 17 17 18 18 18 18 19 19 19 20 20 21 21 21 22 23 22 22 22 22 22 23 23 22 21 20 19 20 22 22 22 23 24 26 26 27 27 28 29 30 30 30 30 30 28 26 25 26 26 27 30 32 32 33 37 39 33 26 29 35 36 35 36 39 42 44 39 37 40 42 41 40 40 42 42 41 41 40 40 41 43 44 46 48 49
16 17 18 19 19 19 20 19 19 19 19 19 20 20 20 20 21 22 22 22 22 23 23 23 22 22 21 20 20 21 22 23 23 23 24 26 28 28 29 30 31 32 32 32 32 32 30 29 30 31 30 28 29 33 34 35 38 39 34 32 37 40 39 38 39 40 44 44 41 40 42 42 41 41 42 42 40 39 41 42 43 44 47 48 50 51 51
17 18 19 19 20 20 20 20 20 19 19 19 19 19 20 20 21 21 22 22 23 23 23 23 23 22 21 20 20 22 23 22 23 24 25 28 29 30 31 33 33 33 34 34 34 34 32 32 35 37 35 32 32 36 38 39 40 41 41 41 42 41 39 40 40 40 42 41 41 42 43 42 42 42 42 41 40 40 42 44 46 48 50 51 52 53 54
18 19 19 20 20 21 21 20 20 19 19 18 18 19 19 20 20 21 22 22 23 23 23 23 22 22 21 20 21 23 23 23 24 25 27 29 31 32 34 34 35 35 36 36 35 36 35 36 38 40 38 36 37 39 41 42 43 45 45 44 43 41 41 42 42 41 40 39 41 43 43 42 42 42 42 43 44 45 47 48 50 51 52 53 55 56 56
18 19 20 20 20 21 21 20 20 19 19 19 19 19 19 19 20 21 22 22 23 23 23 22 22 21 20 21 22 23 24 26 27 28 30 31 33 35 36 37 37 37 37 37 37 37 37 39 40 41 40 39 40 40 42 44 46 48 47 45 43 42 42 43 44 43 40 39 40 42 42 42 43 44 45 47 48 48 49 50 52 53 55 56 58 59 59
19 19 20 20 20 20 20 20 20 19 19 19 18 18 19 20 21 22 22 23 23 23 22 22 22 21 21 22 22 23 26 28 30 32 34 35 36 37 38 39 39 39 39 39 38 38 40 41 42 42 42 41 40 41 44 47 48 48 47 45 43 42 43 45 46 43 39 38 39 40 41 42 44 46 47 49 50 50 51 52 54 56 58 60 61 61 62
19 19 20 20 20 20 20 20 20 19 18 18 18 19 20 21 22 22 23 23 23 23 22 21 22 22 23 24 24 25 27 30 33 35 37 38 38 38 40 41 42 41 41 41 40 41 42 42 42 44 43 41 40 43 48 51 50 47 46 45 44 43 44 46 46 44 41 39 39 40 41 42 44 46 47 49 50 52 54 56 58 60 62 63 64 64 65
19 20 20 20 20 20 20 20 19 19 18 18 19 20 21 22 22 22 22 22 22 22 22 22 22 23 24 25 27 28 31 33 35 37 39 39 39 39 40 42 43 43 43 43 43 43 43 43 44 44 43 42 44 49 51 51 48 46 47 48 47 45 44 43 42 43 42 41 40 41 42 43 45 47 49 51 53 55 57 60 62 64 66 68 69 70 71
20 21 21 21 21 21 20 20 20 20 19 20 20 21 22 22 22 21 21 21 20 20 21 22 22 23 24 26 28 30 33 36 38 39 40 39 40 40 41 42 43 44 46 46 45 43 44 45 44 43 44 47 51 52 49 47 46 47 49 49 48 45 43 41 40 41 42 43 43 44 46 47 49 50 53 55 58 59 62 65 68 71 74 76 77 77 78
21 22 22 22 22 22 21 21 21 21 21 21 22 22 22 21 21 21 20 19 19 19 20 21 22 23 25 28 30 32 35 38 39 40 40 40 41 42 41 41 43 45 47 48 46 43 43 44 42 44 50 54 53 49 46 46 47 48 48 47 44 41 40 40 40 41 41 43 45 46 48 51 54 56 59 62 65 68 71 73 75 77 77 76 75 74 73
21 22 22 23 23 22 22 22 22 23 23 22 22 22 21 20 20 19 18 17 18 19 20 21 22 25 29 32 33 33 35 38 40 41 41 40 40 41 41 42 42 44 47 49 46 42 41 41 43 48 53 54 50 47 47 47 46 46 44 41 39 38 39 40 40 40 40 44 49 53 56 60 64 67 70 73 74 76 77 77 75 74 71 70 69 68 68
21 22 22 23 23 23 23 23 23 23 23 23 22 22 20 18 16 17 17 17 18 19 21 23 26 29 31 34 35 35 35 37 39 42 43 41 39 40 42 43 42 42 46 47 43 39 39 41 45 51 54 52 49 47 47 46 45 44 42 41 41 41 41 41 41 41 44 48 53 57 61 65 70 74 76 75 74 73 73 73 72 72 72 71 71 70 69
21 22 22 22 23 23 24 24 23 23 23 22 21 18 16 15 15 16 18 18 19 21 24 27 31 32 32 34 37 37 36 38 40 42 43 43 41 42 45 45 41 39 41 42 40 39 41 43 48 52 52 50 48 48 48 47 47 45 44 44 44 43 43 44 44 47 51 57 61 66 69 73 74 74 72 69 67 67 67 68 69 70 71 71 71 70 69
21 22 22 22 23 23 23 23 23 23 21 20 17 15 14 15 16 17 18 19 22 26 28 30 33 34 34 35 37 38 38 39 40 41 43 45 44 44 45 44 39 36 38 40 41 42 43 46 49 51 51 48 48 49 48 47 46 45 44 44 44 45 48 52 57 61 65 68 71 73 73 71 69 65 62 61 60 60 61 63 65 66 67 66 65 64 63
21 21 21 22 22 22 23 23 23 21 18 17 16 15 16 17 18 20 21 23 25 28 30 31 33 35 35 35 37 38 38 39 41 42 44 45 44 42 42 41 40 39 40 42 43 44 46 49 51 51 49 47 47 46 45 45 45 45 45 47 50 55 61 66 70 71 70 68 67 65 62 58 56 53 52 53 55 57 59 60 62 64 65 63 61 59 57
21 21 21 21 22 22 22 22 21 19 16 16 16 18 19 20 22 24 26 27 28 29 31 33 35 37 37 37 39 40 40 41 43 44 44 43 43 40 37 39 41 42 42 43 44 46 48 50 51 49 47 45 45 44 45 46 49 53 57 61 65 67 68 66 65 62 60 58 56 54 51 49 49 50 51 52 55 58 60 61 62 64 63 61 59 57 54
21 21 22 22 22 21 20 19 17 16 16 16 18 19 21 22 24 26 28 29 30 31 33 35 37 38 39 39 40 41 41 43 45 45 42 41 41 40 38 39 41 42 41 42 44 46 49 50 50 47 46 45 44 46 49 54 59 64 67 67 65 62 58 56 54 54 54 53 52 50 48 48 50 52 54 56 57 59 61 62 62 62 62 60 58 57 54
22 22 22 22 21 20 18 16 15 16 17 18 20 21 22 23 24 26 29 30 31 33 35 36 38 40 40 40 41 43 43 44 45 45 42 39 39 39 39 39 39 37 36 38 41 46 51 52 48 44 44 46 50 55 60 63 64 63 61 58 56 54 52 52 52 52 52 52 51 50 49 51 53 56 59 60 61 62 62 62 62 62 61 59 57 57 56
22 22 22 21 20 18 17 16 16 17 19 20 20 21 22 23 24 27 30 32 33 35 36 38 39 41 41 42 43 45 44 43 45 45 41 36 35 36 36 36 36 35 36 40 45 49 51 49 46 46 50 56 61 64 64 62 59 57 55 54 54 54 53 52 52 52 52 53 52 52 53 54 57 60 63 65 65 64 63 63 63 62 61 59 57 56 56
23 22 22 21 19 18 17 17 18 18 19 20 20 21 23 25 25 28 31 33 34 36 38 39 40 42 43 43 44 46 45 43 43 42 38 32 30 29 29 31 36 40 44 47 49 50 49 49 51 56 60 62 62 61 60 58 57 56 56 55 55 54 54 53 53 54 54 55 55 56 57 59 61 64 65 66 66 64 63 63 63 62 61 59 58 56 54
23 23 22 21 20 19 19 19 19 18 18 20 22 24 25 26 27 29 33 35 36 37 39 40 41 43 44 44 45 46 44 40 38 38 36 33 31 29 29 34 42 47 48 47 48 50 52 55 59 61 60 59 58 58 58 58 57 55 54 53 53 53 54 55 56 57 58 60 60 61 62 63 64 65 65 65 64 63 62 61 61 60 58 57 57 56 54
24 23 22 21 21 20 20 20 19 18 18 20 23 25 27 28 30 32 34 36 37 38 39 40 41 43 44 44 44 43 40 37 38 40 42 40 37 34 35 40 46 49 48 49 51 54 56 57 58 58 57 57 57 56 56 56 54 53 52 52 53 55 56 59 61 63 64 65 65 65 65 65 65 64 63 63 63 63 62 61 60 59 58 56 55 56 55
24 23 22 21 21 21 21 21 21 21 21 22 25 27 29 31 32 34 36 37 37 38 39 40 42 43 43 43 42 40 40 41 43 44 44 42 40 39 42 47 50 50 50 51 53 54 54 54 54 55 55 56 55 54 54 53 53 53 54 55 57 60 62 64 66 67 67 67 66 66 65 65 64 63 63 63 63 63 63 61 60 60 59 58 57 57 57
24 23 21 21 21 22 22 22 22 24 25 26 28 30 32 33 34 36 37 37 37 38 39 40 41 41 41 42 42 41 41 43 44 44 45 46 47 48 50 51 51 50 51 52 52 51 50 51 51 52 53 54 54 54 54 55 56 57 59 60 62 64 65 66 67 67 67 66 66 65 65 65 65 64 64 65 64 64 64 64 63 62 62 61 60 59 58
Wind_Direction
61 59 57 57 56 55 54 53 51 48 44 43 44 47 48 46 52 57 57 56 56 57 59 58 56 56 57 56 52 49 45 38 29 20 15 8 4 2 356 351 350 346 345 345 344 343 341 339 339 337 338 338 335 333 333 331 332 333 333 332 330 327 321 315 318 324 327 327 331 335 332 326 317 312 307 303 299 289 277 269 274 276 254 248 211 223 288
50 47 46 45 44 44 41 41 44 43 41 39 40 46 47 45 52 59 60 60 60 61 65 65 64 62 62 61 56 50 45 36 23 14 9 5 3 360 354 351 350 347 347 348 347 346 345 342 339 337 336 336 336 335 333 331 331 332 332 331 329 327 322 320 323 328 332 333 335 332 327 321 313 309 305 302 300 295 286 276 271 268 265 261 213 230 286
24 22 21 18 19 24 22 21 26 27 28 28 26 33 40 41 48 55 59 61 57 54 63 66 64 62 62 62 54 46 37 26 15 9 6 3 0 356 352 352 350 347 346 345 345 345 344 341 337 335 334 333 334 334 331 331 330 330 331 331 328 323 318 317 316 312 313 312 313 318 319 316 311 308 305 304 301 293 286 276 262 259 268 265 246 258 289
1 359 357 354 355 357 356 358 1 1 6 8 2 8 16 19 35 44 49 51 40 40 54 56 51 50 49 44 39 32 24 17 10 6 4 359 356 353 351 350 348 345 343 342 341 340 338 336 333 333 333 332 333 332 330 330 329 329 329 327 325 320 317 317 309 296 294 297 303 312 313 309 310 313 310 308 304 295 285 267 257 269 271 269 276 282 292
356 352 350 350 349 349 350 349 349 349 350 350 348 353 355 356 16 24 25 30 30 32 39 37 30 31 28 26 27 22 16 13 8 5 3 359 356 353 353 352 348 346 343 341 340 338 336 335 334 334 333 333 333 331 330 330 328 328 327 325 323 318 316 316 313 310 308 308 312 315 310 307 312 316 315 312 307 298 288 273 275 284 271 271 298 302 295
352 350 350 351 350 352 354 353 352 352 347 345 346 351 358 4 12 14 16 23 23 20 22 22 21 20 17 20 23 18 14 11 9 6 3 2 359 356 356 354 350 349 346 343 342 340 338 338 337 336 334 333 334 332 331 330 329 329 326 324 323 319 316 319 319 319 318 317 320 320 313 311 313 314 316 314 308 301 295 293 297 290 271 281 308 313 303
351 353 356 357 358 360 2 3 3 3 2 4 4 2 9 17 22 22 22 23 22 20 19 20 20 16 15 19 20 17 14 11 11 9 5 4 2 358 358 358 355 354 351 347 346 344 341 339 338 337 335 335 335 332 331 331 329 329 325 323 324 319 317 321 321 320 323 324 327 326 320 316 314 315 318 315 313 311 307 310 311 297 289 300 312 311 310
2 8 11 15 20 21 22 25 24 23 26 27 23 19 23 26 26 28 26 23 25 25 23 23 19 13 14 18 18 16 13 11 11 8 4 4 3 359 359 0 359 357 354 351 349 347 344 340 338 338 336 336 336 333 332 331 329 328 326 325 326 320 318 323 322 319 324 330 333 330 325 316 313 319 329 326 321 321 317 319 319 310 310 317 315 308 314
24 31 32 33 36 37 38 39 39 40 42 40 40 42 41 36 33 30 25 21 24 22 18 17 10 2 7 13 13 11 9 7 7 4 360 359 359 359 358 357 358 357 353 351 350 348 346 342 340 339 336 336 337 334 332 332 330 329 329 327 327 324 320 323 323 318 322 331 333 330 325 317 315 333 345 333 327 326 325 328 327 321 320 320 313 313 322
37 39 40 40 41 41 45 47 49 51 50 48 51 52 48 45 43 39 31 26 26 22 15 11 4 0 5 7 4 3 2 359 359 359 356 353 354 354 352 352 353 352 349 348 347 346 344 343 341 339 339 340 340 337 336 337 333 330 331 330 329 328 324 324 323 316 321 331 332 328 327 322 325 346 341 332 333 336 335 337 335 330 326 321 317 320 328
41 47 52 57 59 59 60 60 58 57 55 53 54 53 48 47 47 44 38 35 35 31 22 17 13 10 8 3 358 356 353 350 350 353 352 349 348 348 346 345 345 345 345 343 342 341 341 340 339 339 341 342 342 342 341 339 336 333 333 332 331 331 327 325 321 311 319 329 330 329 331 323 326 336 334 334 341 340 338 340 336 334 330 325 322 324 327
61 69 72 73 72 69 66 63 59 57 54 51 51 50 46 44 45 44 39 38 40 36 29 25 22 18 11 5 0 356 352 350 348 348 347 344 343 341 340 340 339 340 340 338 338 337 336 336 335 335 338 339 339 342 341 339 338 335 335 336 334 334 331 326 322 312 316 326 332 336 332 315 323 331 333 336 339 338 338 335 330 332 332 323 315 318 323
73 75 74 72 69 66 63 59 56 53 50 48 48 46 42 40 40 40 37 36 38 35 31 29 26 22 16 10 6 0 357 353 348 346 344 341 339 338 337 337 337 337 337 335 335 335 334 334 333 332 336 336 335 338 339 337 336 335 337 338 336 336 334 327 324 317 315 322 326 320 310 315 324 331 333 332 335 338 341 333 326 329 331 317 307 315 319
67 67 66 63 61 59 56 54 51 49 47 45 43 40 38 34 34 34 33 33 34 33 31 30 27 24 20 14 10 5 1 356 350 347 345 342 341 339 338 339 338 337 337 336 335 335 335 335 334 334 337 338 336 336 337 334 332 334 338 338 337 337 333 326 323 318 312 310 306 306 311 316 323 330 331 331 333 338 342 331 322 325 326 310 309 316 317
58 58 57 56 54 53 51 49 46 44 43 41 38 35 33 30 27 27 28 28 30 30 30 29 27 25 21 17 13 8 4 360 355 353 351 348 346 344 342 341 339 338 338 337 336 336 337 337 338 337 339 340 337 333 332 331 330 332 335 336 335 334 329 325 318 309 308 303 300 309 311 307 317 326 327 328 333 336 335 325 319 321 319 308 314 316 316
53 53 52 51 49 48 47 45 43 40 37 35 33 31 29 26 23 22 23 24 25 26 27 28 28 25 21 18 14 9 6 5 3 1 359 355 351 349 346 343 341 341 340 338 337 337 337 339 339 336 336 337 333 327 327 328 327 329 333 333 331 330 327 324 314 307 307 298 288 290 274 291 315 325 325 326 332 331 328 321 315 316 313 311 314 314 314
51 49 47 45 43 41 40 39 38 36 33 31 29 27 26 24 20 19 19 19 21 22 23 25 26 23 20 17 13 10 8 9 8 6 3 358 355 354 351 347 345 345 344 341 339 338 338 339 337 333 332 333 329 325 325 325 325 328 331 329 327 328 327 321 315 312 308 295 283 280 283 301 318 327 326 328 329 328 327 319 310 312 313 313 315 316 318
46 43 40 37 34 32 30 29 29 28 28 27 25 24 24 22 19 17 16 14 16 18 20 21 21 20 17 14 12 12 10 9 9 8 3 360 358 356 354 351 349 348 347 346 343 340 338 338 337 333 329 329 329 325 322 321 322 325 327 326 326 327 325 320 316 315 311 298 283 284 296 311 324 328 327 328 327 327 326 313 309 312 313 314 315 318 323
38 35 32 28 25 23 21 20 20 20 21 22 21 21 22 20 18 16 13 11 11 13 16 16 17 17 15 13 12 13 12 10 8 7 3 0 359 357 355 355 353 351 351 349 346 343 340 338 336 331 326 327 327 324 319 318 320 324 325 325 326 325 322 320 318 317 314 303 289 290 304 318 325 322 322 325 326 326 319 310 310 313 314 314 315 318 323
29 26 24 21 18 16 14 13 13 13 15 17 18 19 20 18 16 14 11 9 9 10 12 12 13 15 14 13 13 12 13 12 8 7 5 2 1 360 357 357 357 356 355 350 347 346 342 337 335 329 325 325 324 322 321 321 323 325 326 326 325 320 317 317 316 316 312 303 296 297 307 315 320 320 319 320 321 319 314 309 311 314 313 312 313 317 321
21 20 18 16 14 12 10 10 9 9 12 13 14 17 18 16 15 12 10 8 8 9 10 9 12 15 13 14 16 14 13 13 9 8 7 5 6 4 359 359 360 359 358 352 348 348 342 336 333 329 325 325 323 322 322 322 324 328 329 327 323 318 315 313 311 312 307 296 293 301 307 311 319 321 314 310 311 311 310 311 313 313 312 311 313 317 318
13 13 13 12 11 10 8 8 7 8 10 9 10 14 15 13 13 11 9 8 7 8 8 8 11 13 11 13 14 13 13 13 10 9 8 8 11 8 4 5 5 3 1 355 349 346 341 337 334 330 329 328 325 325 324 320 323 328 329 325 321 321 322 315 309 311 308 298 300 309 314 316 319 314 307 307 309 310 310 311 312 311 312 313 313 315 315
3 5 7 7 8 7 6 6 6 6 7 7 8 9 8 9 11 10 8 8 7 7 7 7 8 9 9 10 10 11 12 12 11 11 9 9 13 12 10 10 7 6 4 358 352 347 342 340 337 332 332 331 327 327 326 322 324 328 329 327 327 327 325 316 311 314 313 312 317 321 320 320 318 314 313 314 314 314 313 312 312 312 312 312 312 312 312
350 354 358 360 1 2 2 2 2 2 2 3 4 2 3 6 7 6 6 6 5 5 7 7 6 6 7 9 8 10 13 13 13 13 12 11 12 12 12 10 7 6 4 359 354 349 343 342 339 334 335 335 328 326 325 325 328 329 327 330 333 328 321 315 314 313 311 319 331 332 325 323 322 322 324 322 317 316 316 316 317 317 314 312 309 306 306
336 341 346 350 352 355 356 357 358 358 358 359 359 359 2 4 2 1 3 4 2 2 3 4 3 1 1 3 5 7 11 12 12 12 11 10 10 8 7 6 3 1 359 355 353 347 342 341 338 335 337 334 328 326 324 323 325 325 324 330 332 321 316 316 317 315 313 322 333 335 330 330 329 328 329 326 320 318 318 318 321 319 315 312 306 300 300
326 330 334 339 342 345 349 351 353 354 354 355 356 357 358 358 356 357 359 358 357 358 358 358 358 356 355 356 358 2 5 5 5 5 4 4 3 1 359 357 355 354 351 348 346 341 337 337 335 333 333 328 325 325 323 321 320 318 321 330 325 309 310 314 314 314 318 326 332 331 328 330 332 332 330 323 317 317 316 316 316 313 310 308 305 302 300
321 323 327 331 333 337 342 345 347 350 351 352 352 352 351 352 353 353 352 351 353 355 354 352 352 351 349 348 350 353 356 356 357 357 356 356 356 354 352 350 348 346 344 341 339 336 332 331 330 329 327 323 321 321 321 321 318 315 322 332 320 304 309 312 307 308 316 326 330 325 319 323 330 332 325 315 312 312 312 312 311 307 304 304 304 304 303
324 325 326 328 330 332 336 339 342 345 346 347 347 346 346 346 346 346 347 347 348 350 348 347 347 345 344 343 343 345 348 350 351 351 350 350 351 348 346 345 343 341 340 337 335 333 329 326 326 326 324 321 319 318 320 321 317 317 327 334 319 307 310 309 302 303 312 322 325 317 310 315 324 325 316 308 308 308 306 305 303 300 300 300 300 302 303
327 327 327 328 329 330 332 334 337 339 340 341 342 341 341 341 341 342 345 345 345 344 343 342 342 341 340 339 338 339 342 344 345 346 345 345 345 342 341 340 338 337 336 333 332 331 329 327 326 325 323 321 316 315 319 320 317 322 330 331 320 316 314 310 304 304 311 318 319 310 306 310 316 315 308 304 304 302 299 298 296 296 296 296 297 299 302
328 328 328 328 328 329 330 330 331 332 334 334 336 337 337 339 340 340 341 341 341 341 339 338 337 337 335 333 332 335 337 337 338 340 340 340 339 337 335 336 334 333 332 331 330 329 329 328 328 327 326 322 314 313 318 319 318 326 333 329 324 322 319 314 311 308 310 314 312 306 305 308 308 305 301 299 297 293 291 292 291 291 292 293 294 297 299
325 326 327 328 328 328 328 327 327 328 328 329 332 333 334 336 337 337 338 338 337 336 334 332 332 332 330 328 328 330 331 332 333 335 335 334 333 331 331 331 330 329 328 328 327 327 328 329 328 327 326 322 316 316 319 318 319 328 333 330 327 326 321 317 315 310 307 306 303 301 303 304 301 298 296 293 289 285 284 286 286 287 289 290 292 295 298
323 326 327 328 328 328 328 327 326 326 326 327 329 329 329 331 333 334 334 333 332 331 330 328 327 327 325 324 324 325 325 326 327 329 330 330 328 327 326 326 326 326 326 325 324 325 327 327 326 324 322 320 318 318 321 321 324 330 333 330 327 325 320 317 315 311 305 300 297 298 300 299 295 293 291 288 285 283 282 283 284 285 287 289 291 294 297
324 327 327 328 328 328 328 327 326 325 324 324 325 326 326 328 329 330 330 328 327 327 326 323 322 322 321 320 320 321 321 321 321 322 324 325 325 323 323 323 323 323 323 323 323 324 325 325 323 321 319 319 318 318 321 326 330 332 332 328 324 320 317 313 311 309 305 300 297 296 295 292 290 288 286 285 284 284 285 286 288 289 290 291 293 295 298
325 326 326 326 326 325 326 325 324 323 322 322 323 324 325 325 325 325 325 325 323 323 321 319 318 317 316 316 317 319 319 319 319 320 321 323 324 323 322 322 322 322 322 322 322 323 324 323 320 317 317 319 318 317 321 329 332 331 327 323 319 315 312 309 307 306 304 300 297 293 289 286 285 284 282 282 282 283 285 288 293 296 297 297 297 300 302
325 324 324 324 323 322 322 322 320 319 319 319 320 321 321 321 322 322 322 322 320 317 316 315 314 313 313 313 315 318 318 319 320 321 321 323 324 324 322 321 321 321 321 320 321 323 323 321 317 316 317 318 318 321 326 329 329 326 321 317 314 311 308 305 303 302 300 297 292 287 283 280 278 278 279 281 283 285 288 292 297 302 305 304 304 304 305
324 323 321 321 320 320 319 318 317 317 317 317 318 318 318 319 320 319 319 318 316 313 313 312 311 313 314 315 317 320 320 320 321 321 322 323 324 323 322 321 321 321 320 319 321 323 322 318 315 315 315 316 321 326 327 325 321 318 315 312 311 309 305 302 300 298 297 294 290 285 281 278 277 278 281 284 288 291 294 296 300 304 307 308 307 308 309
322 321 320 319 319 318 317 317 316 315 316 316 316 316 317 319 319 318 317 315 313 311 310 309 310 314 315 317 320 322 321 322 323 322 323 324 325 324 323 322 321 321 318 317 321 323 319 315 314 313 314 320 325 325 322 317 315 313 311 310 310 307 303 299 297 294 292 290 286 282 279 278 279 282 286 290 293 296 299 303 306 311 314 315 315 315 316
321 321 319 319 319 318 317 316 315 315 315 316 317 318 320 320 319 317 315 313 310 309 308 308 311 314 315 318 322 324 325 325 324 323 324 325 325 324 323 322 322 320 316 316 320 321 317 314 313 312 316 323 325 320 315 313 312 310 310 310 308 305 300 297 294 292 293 295 297 296 296 297 298 299 302 305 308 310 312 315 316 318 320 320 321 320 320
319 319 318 318 318 317 316 316 315 316 317 319 320 321 322 321 318 315 313 311 309 308 309 310 312 315 317 319 323 327 328 326 323 322 323 326 326 324 322 321 320 317 313 314 318 319 315 312 312 312 316 321 320 314 312 312 310 308 308 307 303 299 296 293 290 291 296 304 309 311 312 313 314 315 316 317 318 319 320 321 322 322 323 323 323 323 322
316 317 317 317 317 317 316 316 317 319 320 321 321 322 321 320 317 313 312 312 310 309 310 312 313 317 320 321 324 328 328 325 322 322 322 324 325 322 319 318 318 314 310 312 317 318 313 309 309 311 314 317 316 313 311 309 306 305 304 303 300 296 293 289 288 290 295 301 304 305 307 309 312 315 318 320 321 322 322 323 323 322 322 322 322 321 321
315 315 316 316 317 318 318 319 319 320 321 321 323 324 322 319 316 313 312 312 310 309 311 313 314 318 322 324 325 326 326 324 322 321 321 323 324 320 317 317 315 309 307 312 316 315 309 305 306 311 315 315 312 309 307 305 303 303 302 301 299 296 292 291 291 294 297 301 303 305 308 310 313 316 319 321 322 322 322 321 320 320 319 319 319 319 319
314 315 316 317 318 319 320 320 320 321 322 323 325 324 320 316 316 314 312 311 310 310 312 315 317 321 325 326 325 324 324 323 322 321 320 321 320 317 315 315 310 303 305 312 313 309 305 301 304 312 317 314 308 305 304 303 303 303 302 300 299 297 298 300 302 302 304 306 307 309 311 313 315 316 318 319 319 319 318 318 319 320 320 320 320 320 319
314 315 316 318 319 320 320 321 321 323 325 326 324 321 318 317 316 313 311 309 310 311 314 317 319 322 324 324 323 322 322 323 322 320 318 318 316 314 312 310 306 304 307 309 307 304 301 302 308 316 318 312 306 304 303 302 301 300 298 298 299 300 302 304 305 306 307 309 310 311 312 314 315 316 317 318 318 318 318 319 320 320 321 322 321 320 319
314 315 316 317 320 320 321 322 324 325 327 326 322 320 318 317 316 313 310 310 312 314 317 320 321 322 323 324 323 322 323 324 321 318 315 315 313 310 304 303 306 307 306 304 302 301 301 307 316 320 315 307 304 303 301 300 301 301 301 302 303 305 306 307 308 310 311 311 312 313 314 314 316 317 318 319 319 318 319 319 319 319 319 320 320 319 318
313 315 315 317 319 321 322 324 326 326 325 323 320 319 317 316 315 313 311 312 315 318 320 321 321 321 323 324 323 322 323 322 318 314 312 311 309 306 303 304 307 306 302 299 299 300 304 313 321 319 310 304 304 303 301 301 303 305 307 308 309 311 313 314 314 314 314 313 314 314 314 315 317 317 318 318 318 318 318 318 317 316 316 317 317 317 316
312 314 315 317 320 322 323 324 325 324 322 320 319 318 316 315 315 313 311 313 317 319 320 321 320 320 321 323 321 320 320 319 315 313 311 307 304 305 307 307 304 300 296 293 295 300 309 317 318 312 305 303 303 302 303 306 308 311 313 315 316 316 317 316 314 314 313 313 313 313 313 314 316 316 317 317 317 316 316 316 315 314 314 315 315 315 315
312 314 316 318 318 319 320 322 323 322 321 319 318 316 315 314 315 313 312 314 318 319 319 320 319 319 320 321 320 318 319 317 314 312 310 305 302 304 306 304 300 298 296 294 297 305 313 315 310 304 303 303 303 305 308 312 314 316 317 318 318 318 317 316 314 314 314 314 315 315 314 314 314 315 315 314 314 314 313 313 312 311 312 314 315 315 315
313 314 315 315 315 315 317 320 322 322 321 319 316 314 313 314 314 312 313 315 317 318 318 319 319 319 320 320 318 317 317 316 313 312 312 307 303 303 303 300 298 299 300 301 305 310 311 308 304 304 305 306 308 312 314 315 316 317 318 318 318 318 317 316 316 316 316 317 317 315 314 314 313 313 312 312 312 313 313 312 311 311 312 314 315 315 315
312 314 314 314 313 315 317 319 321 322 320 317 314 313 313 313 313 313 314 316 317 317 318 319 318 318 319 319 317 316 317 315 313 312 310 306 302 300 298 295 296 299 303 307 308 308 306 306 306 308 309 311 314 315 315 316 317 318 318 318 318 318 318 318 319 319 319 318 317 316 314 313 312 312 312 313 314 315 315 314 313 314 316 317 318 317 317
311 313 314 313 313 314 316 317 318 318 316 313 311 311 311 312 312 313 314 315 316 317 317 318 318 318 318 318 316 316 317 316 313 310 308 306 305 302 297 296 298 303 307 309 308 307 308 309 311 312 313 315 316 316 317 318 319 319 319 320 320 320 320 320 319 319 318 317 316 314 314 314 314 314 315 316 317 317 316 315 315 317 319 319 319 319 318
312 313 314 313 313 314 315 315 314 314 313 312 311 310 310 311 312 313 315 316 316 317 317 318 318 319 319 318 316 315 315 314 313 312 310 310 310 306 302 303 307 310 310 309 309 310 312 313 314 315 317 319 320 320 321 321 321 321 321 321 320 319 319 319 318 318 317 316 316 316 316 317 318 318 318 318 318 318 317 316 317 318 319 318 318 318 317
312 312 312 313 313 313 312 312 312 311 311 311 311 310 310 313 315 316 317 318 317 317 318 318 318 318 318 317 314 313 313 313 313 314 315 315 315 313 311 311 313 314 312 311 313 315 316 315 316 317 320 321 322 323 324 323 323 322 321 320 320 319 319 318 318 319 319 319 319 319 320 320 320 319 319 318 318 318 318 318 318 318 318 318 317 317 317
Height
3199 3199 3199 3198 3198 3198 3198 3197 3197 3197 3196 3196 3195 3194 3194 3193 3193 3192 3192 3192 3191 3191 3190 3190 3190 3190 3190 3190 3190 3190 3190 3190 3190 3190 3189 3189 3188 3188 3187 3186 3186 3185 3184 3183 3182 3181 3179 3179 3178 3177 3177 3176 3174 3172 3171 3169 3167 3165 3163 3161 3160 3158 3155 3151 3145 3142 3142 3142 3142 3141 3140 3139 3138 3137 3136 3135 3133 3132 3131 3129 3126 3124 3121 3118 3122 3114 3091
3200 3200 3199 3199 3199 3198 3198 3198 3198 3197 3197 3196 3196 3195 3195 3194 3193 3193 3193 3192 3192 3191 3191 3190 3190 3190 3190 3190 3190 3190 3190 3190 3190 3190 3189 3189 3188 3188 3187 3186 3186 3185 3184 3183 3182 3181 3180 3179 3178 3177 3176 3175 3173 3172 3170 3169 3167 3165 3163 3161 3159 3157 3155 3153 3147 3141 3138 3136 3137 3137 3136 3136 3135 3134 3134 3132 3130 3129 3128 3125 3124 3121 3115 3113 3115 3105 3088
3201 3200 3200 3200 3199 3199 3199 3198 3198 3198 3197 3197 3196 3196 3195 3194 3194 3193 3193 3192 3192 3192 3191 3191 3191 3190 3190 3191 3190 3190 3190 3190 3190 3190 3189 3189 3189 3188 3187 3187 3186 3185 3184 3184 3183 3181 3180 3179 3178 3177 3175 3174 3173 3171 3169 3168 3165 3164 3162 3160 3158 3156 3154 3153 3152 3149 3145 3140 3137 3135 3133 3132 3131 3129 3129 3128 3127 3126 3124 3122 3122 3117 3111 3109 3106 3095 3085
3201 3201 3201 3200 3200 3199 3199 3199 3198 3198 3197 3197 3197 3196 3196 3195 3194 3194 3194 3193 3193 3192 3192 3192 3192 3192 3192 3191 3191 3191 3191 3191 3191 3191 3190 3189 3189 3188 3187 3187 3186 3185 3184 3183 3182 3181 3180 3178 3177 3175 3174 3172 3171 3169 3167 3166 3164 3162 3160 3158 3156 3153 3151 3151 3151 3149 3147 3144 3140 3138 3135 3131 3128 3126 3125 3123 3122 3120 3119 3119 3116 3110 3107 3103 3096 3089 3085
3202 3202 3201 3201 3200 3200 3199 3199 3198 3198 3198 3197 3197 3197 3196 3196 3195 3195 3195 3194 3194 3194 3194 3194 3193 3193 3193 3192 3192 3192 3192 3191 3191 3190 3190 3189 3188 3188 3187 3186 3185 3184 3182 3181 3180 3179 3178 3177 3175 3173 3172 3170 3169 3167 3165 3163 3161 3159 3157 3156 3154 3151 3148 3147 3146 3144 3142 3140 3137 3136 3134 3129 3126 3123 3120 3118 3118 3116 3114 3112 3107 3106 3105 3097 3090 3089 3086
3203 3202 3201 3201 3200 3200 3199 3199 3199 3198 3198 3197 3197 3197 3196 3196 3196 3196 3195 3195 3195 3195 3195 3194 3194 3193 3193 3192 3192 3192 3192 3191 3191 3190 3189 3189 3188 3187 3186 3185 3184 3183 3181 3180 3178 3177 3175 3174 3173 3172 3170 3168 3167 3164 3162 3161 3159 3157 3155 3153 3152 3149 3145 3143 3142 3139 3137 3136 3133 3131 3129 3126 3123 3120 3116 3114 3113 3111 3108 3105 3102 3103 3101 3092 3087 3088 3084
3203 3202 3201 3201 3200 3199 3199 3199 3198 3198 3197 3197 3197 3197 3196 3196 3196 3196 3196 3195 3195 3195 3195 3194 3194 3193 3193 3193 3192 3192 3192 3191 3191 3190 3189 3188 3188 3187 3186 3185 3184 3182 3181 3179 3178 3176 3174 3172 3172 3170 3168 3167 3165 3162 3160 3159 3157 3155 3154 3152 3150 3147 3144 3141 3139 3135 3133 3132 3130 3127 3125 3122 3118 3115 3112 3111 3109 3107 3104 3102 3100 3099 3094 3088 3087 3086 3082
3203 3203 3202 3201 3201 3200 3199 3198 3198 3197 3197 3197 3197 3197 3196 3196 3196 3196 3196 3196 3195 3195 3195 3195 3194 3194 3193 3193 3193 3192 3192 3191 3190 3190 3189 3188 3187 3186 3185 3184 3183 3182 3181 3179 3178 3176 3175 3173 3171 3169 3167 3165 3164 3161 3159 3157 3156 3154 3152 3150 3149 3146 3143 3140 3138 3133 3130 3129 3128 3125 3122 3119 3114 3111 3110 3109 3107 3105 3103 3100 3098 3095 3091 3088 3086 3083 3080
3204 3203 3203 3202 3201 3201 3200 3199 3199 3198 3197 3197 3197 3197 3197 3197 3197 3197 3196 3196 3196 3196 3195 3195 3195 3194 3193 3193 3193 3192 3192 3191 3190 3189 3188 3187 3186 3185 3184 3183 3183 3181 3180 3179 3177 3176 3175 3173 3171 3169 3166 3164 3163 3161 3159 3157 3155 3153 3151 3149 3147 3145 3142 3139 3138 3133 3128 3127 3126 3123 3120 3116 3112 3110 3109 3108 3105 3103 3101 3099 3097 3094 3090 3087 3085 3082 3079
3205 3204 3204 3203 3203 3202 3201 3201 3200 3199 3199 3199 3198 3198 3198 3198 3197 3197 3197 3197 3197 3196 3196 3196 3195 3194 3193 3193 3192 3192 3191 3191 3190 3189 3188 3187 3186 3185 3184 3183 3182 3180 3179 3178 3177 3175 3174 3172 3170 3169 3167 3165 3163 3161 3158 3156 3154 3152 3150 3148 3146 3145 3142 3139 3138 3134 3128 3126 3125 3122 3118 3113 3110 3109 3108 3105 3103 3102 3100 3098 3096 3093 3090 3085 3083 3080 3077
3206 3206 3205 3205 3204 3204 3203 3203 3202 3201 3201 3201 3199 3199 3199 3198 3198 3198 3198 3197 3197 3196 3196 3196 3195 3194 3193 3193 3192 3192 3191 3190 3189 3188 3187 3186 3185 3184 3183 3182 3180 3179 3178 3176 3175 3174 3172 3171 3169 3167 3166 3164 3162 3160 3158 3156 3154 3151 3150 3148 3145 3144 3142 3139 3138 3134 3128 3125 3124 3120 3117 3112 3109 3109 3108 3105 3103 3101 3099 3097 3095 3092 3089 3084 3080 3078 3075
3207 3207 3207 3206 3206 3205 3205 3204 3204 3203 3202 3201 3200 3200 3200 3199 3199 3198 3198 3197 3197 3196 3196 3195 3194 3194 3193 3193 3192 3191 3191 3190 3189 3188 3187 3186 3185 3184 3182 3181 3179 3178 3177 3175 3173 3172 3170 3169 3167 3165 3164 3162 3160 3158 3156 3154 3152 3150 3148 3147 3144 3142 3141 3138 3136 3133 3128 3125 3123 3121 3118 3112 3108 3107 3107 3104 3102 3100 3097 3094 3092 3090 3087 3081 3077 3074 3072
3209 3208 3208 3208 3207 3206 3206 3205 3204 3204 3203 3202 3201 3201 3201 3200 3199 3199 3198 3197 3196 3196 3196 3195 3194 3194 3193 3192 3192 3191 3190 3189 3188 3187 3186 3185 3184 3183 3182 3180 3178 3177 3175 3173 3172 3170 3168 3166 3164 3162 3162 3160 3157 3156 3154 3152 3150 3149 3147 3146 3143 3142 3140 3137 3135 3132 3128 3125 3125 3122 3116 3109 3106 3106 3105 3102 3100 3097 3094 3090 3086 3086 3084 3078 3074 3072 3069
3210 3210 3209 3209 3208 3207 3207 3206 3205 3205 3204 3203 3203 3202 3201 3201 3200 3199 3199 3198 3197 3196 3196 3195 3194 3193 3193 3192 3191 3190 3190 3189 3188 3187 3186 3185 3183 3182 3180 3179 3177 3176 3174 3172 3170 3168 3166 3163 3161 3159 3158 3156 3154 3152 3151 3150 3149 3147 3146 3145 3143 3141 3139 3136 3134 3132 3128 3126 3123 3119 3113 3106 3103 3104 3103 3101 3098 3096 3093 3088 3083 3083 3081 3076 3072 3069 3065
3211 3211 3210 3210 3209 3209 3208 3207 3206 3206 3205 3204 3204 3203 3202 3202 3201 3200 3199 3198 3197 3196 3196 3195 3194 3193 3192 3191 3190 3190 3189 3188 3187 3186 3185 3184 3182 3181 3179 3178 3176 3174 3173 3171 3168 3166 3165 3162 3159 3157 3155 3154 3152 3150 3148 3148 3147 3146 3145 3144 3142 3141 3138 3136 3134 3130 3128 3126 3121 3117 3111 3104 3100 3102 3101 3099 3096 3094 3092 3087 3081 3080 3079 3074 3069 3066 3061
3212 3212 3211 3211 3210 3210 3209 3208 3208 3207 3206 3205 3204 3203 3203 3202 3202 3201 3200 3198 3197 3196 3195 3194 3193 3193 3192 3191 3190 3189 3188 3187 3186 3185 3184 3183 3181 3180 3178 3176 3175 3173 3171 3169 3167 3165 3163 3162 3160 3158 3156 3155 3152 3149 3147 3146 3144 3144 3143 3142 3140 3139 3136 3134 3132 3129 3127 3125 3121 3117 3110 3101 3099 3101 3100 3097 3094 3092 3089 3084 3078 3076 3074 3070 3066 3062 3058
3213 3213 3212 3212 3211 3211 3210 3209 3209 3208 3207 3206 3205 3204 3203 3203 3202 3201 3200 3199 3198 3196 3195 3194 3193 3193 3192 3191 3190 3189 3187 3186 3185 3183 3182 3181 3180 3178 3177 3175 3173 3172 3170 3168 3166 3164 3162 3161 3159 3157 3156 3155 3153 3149 3147 3145 3143 3142 3141 3139 3137 3136 3134 3132 3129 3126 3124 3122 3118 3112 3104 3098 3099 3100 3098 3095 3093 3090 3086 3081 3074 3070 3068 3065 3061 3058 3055
3214 3213 3213 3213 3212 3211 3211 3210 3209 3208 3208 3207 3206 3205 3204 3203 3202 3201 3200 3199 3198 3197 3196 3195 3194 3193 3192 3190 3189 3188 3186 3185 3184 3182 3181 3180 3178 3176 3175 3173 3171 3170 3168 3166 3164 3162 3161 3160 3158 3156 3154 3153 3151 3149 3146 3144 3142 3141 3140 3138 3136 3134 3132 3129 3126 3124 3121 3118 3114 3107 3101 3098 3099 3099 3097 3094 3091 3087 3085 3080 3072 3067 3065 3062 3058 3054 3051
3214 3214 3214 3213 3213 3212 3212 3211 3210 3209 3208 3207 3206 3205 3204 3203 3202 3201 3201 3200 3198 3197 3196 3195 3194 3193 3191 3190 3189 3187 3186 3184 3183 3181 3180 3178 3177 3175 3173 3172 3170 3168 3166 3165 3163 3161 3160 3158 3157 3155 3152 3151 3150 3148 3145 3142 3142 3141 3139 3137 3135 3132 3129 3126 3124 3122 3119 3115 3111 3105 3101 3099 3099 3097 3095 3092 3089 3086 3083 3077 3071 3067 3063 3060 3056 3052 3049
3215 3215 3214 3214 3214 3213 3212 3211 3210 3210 3209 3208 3207 3206 3205 3204 3203 3202 3201 3200 3199 3198 3197 3195 3194 3193 3191 3190 3188 3187 3185 3184 3182 3181 3179 3177 3176 3174 3172 3170 3168 3167 3165 3163 3162 3160 3158 3157 3155 3154 3151 3149 3149 3147 3143 3139 3139 3140 3138 3136 3133 3130 3128 3125 3122 3120 3117 3112 3109 3106 3101 3097 3097 3095 3092 3089 3087 3083 3078 3072 3068 3065 3061 3057 3054 3050 3047
3215 3215 3215 3214 3214 3213 3213 3212 3211 3210 3209 3208 3207 3206 3205 3205 3204 3203 3202 3201 3199 3198 3197 3196 3195 3193 3191 3190 3188 3186 3185 3183 3182 3180 3179 3177 3175 3173 3171 3169 3168 3166 3164 3162 3160 3159 3157 3155 3154 3152 3151 3149 3147 3145 3141 3137 3135 3135 3135 3133 3129 3127 3127 3124 3120 3119 3116 3110 3106 3104 3098 3094 3094 3092 3089 3086 3083 3079 3073 3068 3064 3061 3057 3053 3049 3046 3044
3216 3215 3215 3215 3214 3214 3213 3212 3211 3210 3209 3208 3207 3206 3206 3205 3204 3203 3202 3201 3200 3198 3197 3196 3195 3193 3192 3190 3188 3186 3185 3183 3182 3180 3178 3177 3175 3173 3172 3170 3168 3166 3164 3162 3160 3159 3157 3155 3153 3151 3149 3147 3145 3142 3140 3137 3134 3132 3131 3129 3126 3124 3124 3121 3116 3115 3112 3105 3101 3099 3093 3089 3090 3089 3085 3081 3078 3074 3069 3065 3060 3057 3054 3050 3046 3042 3040
3216 3216 3216 3215 3215 3214 3213 3212 3211 3210 3209 3208 3207 3207 3206 3205 3204 3203 3202 3201 3200 3199 3198 3196 3195 3194 3192 3190 3189 3187 3185 3184 3182 3180 3178 3176 3175 3173 3171 3169 3167 3166 3164 3162 3160 3158 3156 3154 3152 3149 3147 3146 3143 3140 3138 3136 3133 3130 3127 3126 3123 3121 3120 3116 3111 3109 3106 3100 3096 3094 3089 3086 3086 3084 3080 3076 3073 3069 3065 3061 3057 3054 3051 3047 3044 3040 3037
3216 3216 3215 3215 3214 3214 3213 3212 3211 3210 3210 3209 3208 3207 3206 3205 3204 3203 3202 3201 3200 3199 3198 3197 3195 3193 3192 3190 3189 3187 3186 3184 3182 3180 3178 3176 3174 3172 3171 3169 3167 3165 3163 3161 3159 3157 3154 3153 3151 3148 3146 3144 3142 3139 3136 3133 3131 3128 3124 3122 3120 3117 3115 3112 3108 3105 3101 3096 3093 3091 3085 3081 3080 3078 3075 3072 3069 3065 3061 3057 3054 3050 3047 3044 3041 3038 3035
3216 3215 3215 3214 3214 3213 3213 3212 3211 3210 3210 3209 3208 3207 3206 3205 3204 3203 3202 3201 3200 3199 3197 3196 3195 3194 3192 3190 3189 3187 3185 3184 3182 3180 3178 3176 3174 3172 3170 3169 3166 3164 3162 3160 3158 3155 3153 3151 3150 3147 3145 3143 3140 3137 3135 3132 3129 3126 3122 3119 3117 3114 3111 3107 3104 3101 3097 3092 3089 3087 3082 3078 3076 3073 3071 3068 3064 3059 3056 3053 3049 3046 3043 3040 3038 3035 3032
3215 3215 3214 3214 3213 3212 3212 3211 3211 3210 3209 3208 3207 3206 3206 3205 3204 3203 3202 3201 3200 3199 3197 3196 3195 3193 3192 3190 3189 3187 3185 3183 3181 3179 3177 3176 3174 3172 3170 3168 3166 3164 3161 3159 3156 3154 3152 3150 3148 3146 3143 3141 3138 3135 3132 3129 3127 3123 3119 3117 3114 3110 3107 3103 3099 3095 3091 3088 3085 3081 3077 3074 3072 3069 3065 3063 3059 3055 3051 3048 3045 3042 3039 3036 3034 3031 3029
3215 3214 3214 3213 3212 3212 3211 3210 3210 3209 3209 3208 3207 3206 3205 3204 3203 3202 3201 3200 3199 3198 3197 3195 3194 3193 3191 3190 3188 3186 3185 3183 3181 3179 3177 3175 3173 3171 3169 3167 3165 3163 3160 3158 3155 3153 3150 3147 3146 3144 3142 3139 3135 3132 3130 3127 3123 3120 3117 3114 3112 3107 3103 3100 3095 3090 3085 3083 3081 3077 3071 3068 3067 3065 3061 3057 3054 3051 3047 3044 3041 3038 3035 3031 3028 3025 3023
3214 3213 3213 3212 3211 3211 3210 3209 3209 3208 3208 3207 3206 3206 3204 3203 3202 3201 3201 3199 3198 3197 3196 3195 3193 3192 3190 3189 3187 3186 3184 3182 3180 3178 3176 3174 3172 3170 3168 3166 3163 3161 3158 3156 3153 3151 3148 3145 3143 3141 3139 3136 3132 3129 3126 3123 3119 3116 3114 3112 3108 3104 3100 3097 3092 3086 3081 3079 3077 3073 3068 3063 3061 3060 3057 3053 3049 3046 3042 3039 3035 3032 3029 3025 3021 3017 3015
3212 3212 3211 3211 3210 3209 3209 3208 3207 3207 3206 3206 3205 3204 3203 3202 3201 3200 3199 3198 3197 3195 3194 3193 3192 3190 3189 3187 3186 3184 3182 3180 3178 3176 3175 3172 3171 3169 3166 3164 3161 3159 3156 3154 3151 3148 3146 3143 3141 3138 3136 3133 3129 3125 3123 3120 3115 3112 3110 3108 3104 3100 3097 3093 3088 3083 3078 3076 3074 3070 3064 3060 3058 3056 3053 3049 3045 3041 3037 3033 3030 3026 3023 3020 3016 3012 3008
3211 3211 3210 3209 3209 3208 3207 3206 3206 3205 3204 3204 3203 3203 3202 3201 3200 3198 3197 3196 3195 3194 3192 3191 3190 3189 3187 3186 3184 3182 3180 3178 3176 3175 3173 3171 3169 3167 3164 3162 3159 3156 3154 3151 3148 3146 3143 3140 3138 3135 3133 3130 3125 3121 3119 3116 3112 3109 3108 3105 3101 3097 3093 3090 3086 3080 3075 3073 3071 3066 3061 3058 3055 3052 3049 3045 3040 3035 3031 3028 3024 3020 3016 3013 3009 3006 3003
3210 3209 3208 3208 3207 3206 3205 3204 3204 3203 3203 3202 3202 3201 3200 3199 3198 3197 3196 3195 3193 3192 3191 3189 3188 3187 3185 3184 3182 3180 3178 3176 3175 3173 3171 3169 3167 3165 3162 3159 3157 3154 3151 3148 3145 3143 3140 3138 3135 3131 3128 3126 3122 3118 3115 3112 3108 3105 3104 3102 3098 3094 3090 3086 3083 3078 3073 3069 3066 3061 3058 3055 3052 3047 3043 3040 3035 3030 3026 3022 3019 3014 3010 3007 3003 3000 2996
3208 3207 3207 3206 3205 3204 3204 3203 3202 3201 3201 3201 3200 3200 3199 3198 3197 3196 3194 3193 3192 3190 3189 3187 3186 3185 3183 3181 3180 3178 3176 3174 3173 3171 3169 3167 3165 3162 3159 3157 3154 3151 3148 3145 3142 3140 3137 3134 3131 3127 3124 3121 3118 3115 3112 3108 3104 3101 3099 3096 3093 3090 3086 3082 3078 3074 3070 3065 3059 3055 3053 3051 3047 3041 3037 3033 3029 3025 3020 3016 3012 3008 3004 3000 2997 2993 2990
3206 3206 3205 3204 3204 3203 3202 3202 3201 3200 3199 3199 3198 3198 3197 3196 3195 3193 3192 3191 3189 3188 3187 3185 3184 3182 3181 3179 3177 3176 3174 3172 3170 3169 3167 3165 3162 3159 3156 3153 3151 3148 3145 3142 3139 3136 3134 3131 3127 3123 3120 3118 3114 3111 3108 3105 3102 3097 3094 3091 3088 3084 3080 3076 3072 3068 3064 3060 3055 3049 3045 3043 3039 3035 3030 3026 3022 3018 3013 3009 3004 3000 2996 2992 2989 2986 2983
3204 3204 3203 3203 3202 3202 3201 3200 3199 3198 3198 3197 3196 3195 3194 3193 3192 3191 3190 3188 3187 3185 3184 3183 3181 3180 3178 3176 3175 3173 3171 3169 3167 3165 3163 3161 3159 3155 3152 3149 3146 3143 3140 3138 3135 3133 3130 3126 3122 3119 3116 3114 3111 3107 3103 3100 3098 3094 3089 3086 3082 3078 3073 3069 3066 3062 3058 3054 3049 3044 3039 3035 3031 3027 3023 3019 3016 3011 3007 3002 2997 2992 2987 2984 2981 2978 2975
3202 3202 3202 3201 3200 3200 3199 3199 3198 3197 3196 3195 3194 3193 3192 3191 3190 3189 3187 3186 3184 3182 3181 3180 3178 3177 3175 3173 3172 3170 3168 3166 3164 3161 3159 3157 3154 3151 3148 3144 3141 3139 3136 3133 3131 3129 3125 3122 3118 3114 3111 3110 3108 3103 3098 3094 3092 3089 3084 3080 3075 3070 3065 3061 3058 3055 3052 3048 3043 3038 3034 3029 3025 3021 3017 3013 3009 3004 2999 2995 2991 2986 2981 2977 2974 2972 2968
3201 3200 3200 3199 3199 3198 3198 3197 3196 3195 3194 3193 3192 3191 3190 3188 3187 3186 3184 3183 3182 3180 3178 3177 3175 3174 3172 3170 3168 3167 3165 3163 3161 3158 3155 3153 3150 3147 3144 3140 3137 3134 3130 3127 3126 3124 3121 3116 3113 3110 3108 3106 3104 3101 3096 3090 3086 3083 3079 3074 3069 3064 3058 3054 3050 3047 3044 3042 3037 3032 3028 3024 3019 3015 3010 3006 3002 2998 2993 2988 2984 2980 2975 2970 2967 2964 2961
3199 3199 3198 3198 3197 3197 3196 3195 3194 3193 3192 3191 3190 3189 3187 3186 3184 3183 3182 3181 3179 3178 3176 3174 3173 3171 3170 3168 3166 3165 3163 3160 3157 3154 3151 3149 3146 3143 3140 3136 3132 3128 3124 3121 3121 3119 3116 3111 3108 3106 3104 3102 3100 3096 3092 3087 3082 3077 3072 3068 3064 3059 3054 3049 3045 3040 3037 3034 3031 3027 3022 3018 3013 3009 3004 2999 2995 2992 2987 2983 2978 2974 2969 2964 2960 2956 2952
3197 3197 3196 3196 3196 3195 3194 3194 3193 3192 3191 3189 3188 3186 3185 3183 3182 3181 3179 3178 3177 3175 3174 3172 3170 3169 3167 3166 3165 3163 3161 3158 3154 3151 3148 3146 3143 3139 3136 3132 3129 3124 3119 3116 3116 3115 3110 3106 3103 3100 3098 3098 3095 3090 3086 3083 3078 3072 3067 3063 3058 3054 3050 3045 3041 3036 3031 3026 3023 3019 3015 3010 3005 3002 2997 2993 2988 2985 2980 2976 2972 2967 2962 2958 2953 2948 2944
3195 3195 3194 3194 3194 3193 3192 3192 3191 3189 3188 3187 3186 3184 3183 3181 3180 3178 3177 3176 3174 3173 3171 3170 3168 3167 3165 3164 3163 3162 3159 3155 3151 3147 3145 3143 3140 3136 3132 3129 3126 3121 3114 3110 3111 3110 3105 3101 3098 3094 3091 3091 3089 3085 3080 3077 3072 3067 3063 3059 3054 3050 3046 3042 3038 3034 3028 3022 3018 3014 3009 3004 2998 2994 2990 2985 2981 2977 2973 2968 2964 2959 2955 2951 2946 2942 2937
3193 3192 3192 3192 3191 3191 3190 3189 3188 3187 3186 3184 3183 3182 3180 3179 3178 3176 3175 3174 3172 3170 3169 3167 3166 3165 3164 3161 3159 3158 3156 3152 3147 3144 3141 3140 3138 3133 3128 3124 3122 3116 3110 3106 3106 3105 3100 3096 3093 3089 3085 3084 3082 3078 3075 3071 3067 3063 3059 3055 3050 3046 3042 3038 3034 3029 3024 3019 3014 3010 3005 3001 2995 2990 2985 2980 2974 2969 2965 2961 2957 2953 2949 2945 2941 2937 2932
3191 3190 3190 3189 3189 3188 3187 3186 3186 3185 3183 3182 3181 3180 3178 3177 3176 3175 3173 3171 3170 3168 3167 3165 3163 3162 3161 3159 3156 3154 3151 3148 3144 3140 3137 3135 3133 3129 3123 3120 3117 3112 3106 3104 3103 3101 3096 3091 3087 3084 3081 3078 3075 3072 3069 3066 3062 3058 3054 3050 3046 3041 3036 3032 3028 3024 3019 3014 3009 3004 3000 2996 2991 2986 2981 2976 2971 2965 2961 2956 2953 2949 2945 2941 2936 2932 2928
3188 3188 3187 3187 3186 3185 3185 3184 3183 3182 3181 3180 3179 3178 3176 3175 3174 3173 3171 3170 3167 3165 3164 3162 3160 3159 3158 3156 3153 3150 3147 3144 3141 3137 3133 3130 3128 3123 3118 3116 3112 3107 3103 3102 3100 3097 3092 3086 3082 3080 3079 3075 3070 3066 3063 3059 3056 3052 3048 3044 3040 3035 3030 3025 3020 3017 3013 3009 3003 2999 2995 2991 2986 2982 2978 2973 2969 2964 2960 2955 2950 2946 2941 2936 2932 2927 2923
3186 3186 3185 3184 3184 3183 3182 3181 3180 3179 3179 3178 3177 3176 3175 3174 3173 3171 3169 3168 3166 3164 3162 3161 3159 3157 3156 3153 3150 3147 3144 3142 3138 3134 3130 3126 3122 3118 3114 3111 3107 3103 3100 3099 3097 3092 3088 3082 3078 3076 3074 3071 3066 3061 3058 3055 3050 3046 3042 3038 3033 3029 3024 3020 3015 3010 3007 3003 2999 2994 2990 2986 2982 2979 2975 2970 2965 2960 2956 2952 2947 2941 2936 2931 2926 2922 2918
3184 3183 3182 3182 3181 3180 3179 3179 3178 3177 3177 3176 3175 3174 3173 3172 3171 3169 3167 3165 3164 3162 3161 3159 3156 3154 3152 3149 3146 3142 3140 3138 3134 3129 3125 3122 3118 3114 3110 3106 3103 3101 3098 3094 3091 3087 3082 3078 3075 3073 3069 3065 3061 3058 3054 3050 3045 3039 3033 3030 3027 3022 3018 3013 3009 3004 3000 2997 2993 2989 2985 2980 2976 2973 2969 2965 2960 2954 2949 2945 2941 2936 2931 2925 2921 2916 2913
3181 3180 3180 3179 3179 3178 3177 3176 3176 3175 3175 3174 3173 3172 3171 3169 3168 3166 3163 3162 3161 3160 3158 3156 3153 3150 3147 3145 3142 3139 3136 3134 3129 3124 3121 3117 3114 3110 3107 3103 3100 3097 3093 3089 3086 3081 3076 3074 3073 3070 3064 3059 3056 3053 3048 3043 3038 3032 3026 3022 3019 3015 3011 3006 3002 2998 2993 2989 2986 2982 2978 2974 2970 2965 2961 2958 2954 2949 2943 2939 2934 2930 2925 2920 2915 2910 2907
3179 3178 3177 3177 3176 3175 3175 3175 3174 3174 3173 3171 3170 3169 3168 3167 3165 3163 3160 3159 3158 3157 3155 3152 3149 3146 3144 3142 3139 3135 3133 3130 3124 3119 3116 3113 3109 3106 3104 3101 3097 3092 3088 3083 3079 3075 3071 3070 3069 3065 3060 3054 3050 3046 3041 3036 3032 3027 3021 3016 3011 3008 3005 3000 2996 2992 2988 2983 2979 2976 2972 2967 2963 2958 2954 2950 2946 2942 2937 2932 2928 2923 2918 2913 2909 2905 2901
3176 3176 3175 3174 3173 3173 3173 3173 3173 3172 3171 3169 3168 3166 3165 3163 3162 3159 3157 3156 3155 3153 3151 3149 3146 3143 3141 3139 3135 3131 3129 3125 3119 3114 3112 3109 3106 3103 3101 3098 3093 3089 3084 3077 3072 3070 3068 3067 3063 3059 3054 3049 3043 3038 3034 3029 3025 3020 3016 3011 3006 3002 2999 2994 2990 2986 2982 2978 2973 2969 2965 2961 2956 2952 2947 2942 2937 2933 2929 2925 2921 2917 2912 2908 2904 2900 2895
3174 3173 3173 3172 3171 3171 3170 3171 3171 3170 3169 3167 3165 3163 3161 3160 3158 3156 3154 3152 3151 3149 3147 3144 3142 3139 3137 3135 3131 3126 3124 3120 3115 3110 3108 3106 3102 3100 3098 3094 3088 3084 3080 3074 3069 3067 3066 3062 3057 3052 3048 3043 3037 3031 3026 3022 3018 3014 3010 3005 3001 2996 2992 2988 2984 2980 2976 2971 2967 2963 2958 2954 2949 2945 2939 2933 2928 2925 2921 2917 2913 2909 2905 2901 2897 2893 2889
3171 3171 3170 3170 3169 3168 3168 3168 3168 3168 3166 3164 3162 3160 3158 3156 3154 3152 3150 3149 3147 3145 3143 3141 3138 3135 3132 3130 3126 3122 3119 3116 3111 3107 3105 3103 3100 3098 3095 3089 3082 3077 3075 3073 3069 3065 3060 3056 3050 3045 3040 3035 3030 3025 3021 3016 3013 3009 3005 3000 2996 2991 2986 2982 2978 2974 2970 2965 2961 2956 2951 2947 2942 2936 2931 2926 2920 2916 2913 2909 2906 2902 2898 2895 2890 2886 2882
3168 3168 3168 3167 3167 3166 3166 3165 3165 3165 3164 3162 3159 3157 3155 3153 3151 3149 3147 3145 3143 3141 3139 3137 3134 3131 3128 3125 3120 3117 3114 3112 3108 3104 3101 3099 3097 3095 3090 3083 3076 3072 3071 3069 3065 3059 3054 3049 3043 3037 3032 3029 3025 3020 3016 3011 3008 3003 2999 2995 2990 2986 2981 2977 2972 2967 2963 2959 2954 2948 2943 2939 2934 2928 2923 2918 2913 2909 2905 2902 2898 2895 2891 2888 2884 2879 2875
3166 3166 3166 3165 3164 3163 3163 3162 3161 3160 3159 3158 3156 3153 3151 3149 3147 3146 3144 3142 3139 3137 3134 3132 3129 3126 3123 3120 3116 3113 3110 3108 3105 3101 3097 3095 3093 3089 3082 3075 3072 3070 3067 3062 3057 3052 3048 3043 3037 3031 3026 3022 3019 3015 3011 3006 3002 2998 2994 2989 2985 2980 2975 2970 2965 2960 2955 2951 2946 2941 2936 2931 2926 2921 2916 2911 2907 2902 2897 2893 2890 2887 2883 2880 2876 2873 2869
3163 3163 3163 3163 3162 3160 3159 3159 3157 3156 3154 3153 3151 3149 3147 3146 3144 3142 3140 3137 3134 3132 3130 3128 3125 3123 3120 3116 3112 3109 3107 3103 3100 3097 3093 3090 3087 3082 3076 3070 3068 3065 3060 3054 3050 3046 3042 3037 3033 3028 3023 3018 3014 3010 3005 3001 2996 2992 2988 2983 2978 2973 2968 2963 2958 2953 2947 2942 2937 2933 2928 2923 2919 2914 2909 2904 2899 2894 2889 2884 2881 2878 2875 2871 2868 2865 2861